Location: Elliott Corner
(37.4627°N, 119.7746°W)
Time: 23:13:06
(UTC+00:00)

GP-B - Pass Details

Date: 10 September 2024
Orbit: 623 x 626 km, 89.8° (Epoch: 13 October)

Event Time Altitude Azimuth Distance (km) Brightness Sun altitude
Rises 13:06:06 0° 188° (S) 2,898 6.3 -7.0°
Reaches altitude 10° 13:08:21 10° 194° (SSW) 1,996 5.4 -6.5°
Maximum altitude 13:12:37 51° 270° (W) 789 3.3 -5.7°
Drops below altitude 10° 13:16:56 10° 347° (NNW) 2,009 5.7 -4.9°
Sets 13:19:12 0° 353° (N) 2,920 6.5 -4.4°
